{"data":{"norad_id":59029,"intl_designator":"2024-038G","name":"STARLINK-31224","alt_names":[],"object_type":"PAYLOAD","status":"ACTIVE","operator":null,"country":"US","launch_date":"2024-02-25","launch_site_code":"AFETR","launch_vehicle":null,"mission":null,"orbit_class":"UNKNOWN","rcs_meters":null,"size_class":null,"mass_kg":null,"dimensions":null,"purposes":["comms"],"wikipedia_slug":null,"has_3d_model":false,"image_url":null,"decayed_at":null,"tle_current":{"epoch":"2026-05-24T21:14:43.175616Z","epoch_age_seconds":78896,"freshness":"FRESH","line1":"1 59029U 24038G   26144.88522194  .00001593  00000+0  67380-4 0  9993","line2":"2 59029  43.0014 316.5054 0001175 270.2075  89.8642 15.27581106126417","mean_motion":15.27581106,"eccentricity":0.0001175,"inclination_deg":43.0014,"raan_deg":316.5054,"arg_perigee_deg":270.2075,"mean_anomaly_deg":89.8642,"bstar":6.738e-5,"rev_number":12641,"period_min":94.266680462595,"perigee_km":482.23959530262,"apogee_km":483.85197325692,"semimajor_km":6861.1827842798,"source":"CELESTRAK","updated_at":"2026-05-25T13:38:18.823163Z"}}}